Weather History for EBOS - July, 2013

Change the Weather History Date:

Thursday, July 25, 2013

  Actual Average Record
Temperature  
Mean Temperature 67 °F -  
Max Temperature 75 °F 69 °F 82 °F (2008)
Min Temperature 59 °F 54 °F 46 °F (1998)
Cooling Degree Days 2    
Growing Degree Days 17 (Base 50)    
Moisture  
Dew Point 60 °F    
Average Humidity 78    
Maximum Humidity 88    
Minimum Humidity 55    
Precipitation  
Precipitation 0.00 in - - ()
Sea Level Pressure  
Sea Level Pressure 29.97 in    
Wind  
Wind Speed 5 mph ()    
Max Wind Speed 13 mph    
Max Gust Speed -    
Visibility 6.7 miles    
Events Rain    
Averages and records for this station are not official NWS values.
T = Trace of Precipitation, MM = Missing Value Source: Averaged Metar Reports

Daily Weather History Graph

Daily Weather History Graph

Search for Another Location

Airport or City:

Trip Planner

Search our weather history database for the weather conditions in past years. The results will help you decide how hot, cold, wet, or windy it might be!

Date:

Astronomy

Jul. 25, 2013 Rise Set
Actual Time 6:03 AM CEST 9:45 PM CEST
Civil Twilight 5:21 AM CEST 10:27 PM CEST
Nautical Twilight 4:24 AM CEST 11:24 PM CEST
Astronomical Twilight 2:53 AM CEST 12:51 AM CEST
Moon 10:44 PM CEST (7/25) 9:44 AM CEST (7/25)
Length of Visible Light 17h 05m
Length of Day
15h 42m
Waning Gibbous, 90% of the Moon is Illuminated
Jul 25
Waning Gibbous
Jul 29
Last Quarter
Aug 6
New
Aug 14
First Quarter
Aug 21
Full

Hourly Weather History & Observations

Time (CEST) Temp. Dew Point Humidity Pressure Visibility Wind Dir Wind Speed Gust Speed Precip Events Conditions
12:20 AM 60.8 °F 57.2 °F 88% 29.98 in - SSE 3.5 mph - N/A   Clear
12:50 AM 60.8 °F 55.4 °F 82% 29.98 in - SE 2.3 mph - N/A   Clear
1:20 AM 60.8 °F 57.2 °F 88% 29.98 in - SE 3.5 mph - N/A   Clear
1:50 AM 60.8 °F 55.4 °F 82% 29.98 in - SE 2.3 mph - N/A   Clear
2:00 AM 61 °F 56 °F 80% 30.00 in 10 mi SE 2.2 mph - -   Mostly Cloudy
2:20 AM 60.8 °F 57.2 °F 88% 29.98 in - South 2.3 mph - N/A   Clear
2:50 AM 60.8 °F 55.4 °F 82% 29.98 in - South 1.2 mph - N/A   Clear
3:20 AM 60.8 °F 57.2 °F 88% 29.98 in - East 2.3 mph - N/A   Clear
3:50 AM 62.6 °F 57.2 °F 82% 29.98 in 6.2 mi South 3.5 mph - N/A   Mostly Cloudy
4:20 AM 62.6 °F 57.2 °F 82% 29.98 in 6.2 mi South 3.5 mph - N/A Rain Light Rain
4:50 AM 62.6 °F 59.0 °F 88% 29.98 in 6.2 mi South 5.8 mph - N/A   Scattered Clouds
5:00 AM 63 °F 58 °F 80% 29.98 in 6 mi South 6.7 mph - - Rain Light Rain
5:20 AM 62.6 °F 59.0 °F 88% 29.98 in 4.3 mi South 4.6 mph - N/A Rain Light Rain Showers
5:50 AM 62.6 °F 59.0 °F 88% 29.98 in 2.2 mi ESE 3.5 mph - N/A Rain Rain Showers
6:20 AM 62.6 °F 59.0 °F 88% 29.95 in 3.7 mi NE 4.6 mph - N/A   Partly Cloudy
6:50 AM 62.6 °F 59.0 °F 88% 29.95 in 5.0 mi East 5.8 mph - N/A   Scattered Clouds
7:20 AM 64.4 °F 59.0 °F 83% 29.95 in 6.2 mi East 6.9 mph - N/A   Scattered Clouds
7:50 AM 64.4 °F 59.0 °F 83% 29.95 in 6.2 mi East 8.1 mph - N/A   Scattered Clouds
8:00 AM 64 °F 59 °F 79% 29.95 in 9 mi East 6.7 mph - -   Partly Cloudy
8:20 AM 66.2 °F 60.8 °F 83% 29.95 in 6.2 mi ESE 5.8 mph - N/A   Partly Cloudy
8:50 AM 68.0 °F 62.6 °F 83% 29.95 in 6.2 mi SE 6.9 mph - N/A   Partly Cloudy
9:20 AM 69.8 °F 62.6 °F 78% 29.95 in - SSE 8.1 mph - N/A   Clear
9:50 AM 71.6 °F 62.6 °F 73% 29.95 in - South 8.1 mph - N/A   Clear
10:20 AM 71.6 °F 62.6 °F 73% 29.95 in - SSW 10.4 mph - N/A   Clear
10:50 AM 71.6 °F 62.6 °F 73% 29.95 in - SSW 9.2 mph - N/A   Clear
11:00 AM 72 °F 63 °F 67% 29.96 in 9 mi SSW 8.9 mph - -   Mostly Cloudy
11:20 AM 75.2 °F 64.4 °F 69% 29.95 in - SSW 6.9 mph - N/A   Clear
11:50 AM 75.2 °F 64.4 °F 69% 29.95 in 6.2 mi SW 11.5 mph - N/A   Partly Cloudy
12:20 PM 73.4 °F 64.4 °F 73% 29.95 in 6.2 mi West 12.7 mph - N/A   Partly Cloudy
12:50 PM 73.4 °F 64.4 °F 73% 29.98 in 6.2 mi West 12.7 mph - N/A   Partly Cloudy
1:20 PM 75.2 °F 62.6 °F 65% 29.95 in 6.2 mi West 11.5 mph - N/A   Partly Cloudy
1:50 PM 73.4 °F 60.8 °F 65% 29.95 in 6.2 mi WNW 10.4 mph - N/A   Partly Cloudy
2:00 PM 73 °F 60 °F 55% 29.97 in 16 mi WNW 11.2 mph - -   Scattered Clouds
2:20 PM 73.4 °F 60.8 °F 65% 29.95 in 6.2 mi WNW 11.5 mph - N/A   Partly Cloudy
2:50 PM 73.4 °F 60.8 °F 65% 29.98 in 6.2 mi WNW 11.5 mph - N/A   Partly Cloudy
3:20 PM 73.4 °F 60.8 °F 65% 29.95 in 6.2 mi WNW 11.5 mph - N/A   Partly Cloudy
3:50 PM 71.6 °F 60.8 °F 69% 29.98 in 6.2 mi WNW 12.7 mph - N/A   Partly Cloudy
4:20 PM 71.6 °F 60.8 °F 69% 29.98 in 6.2 mi WNW 10.4 mph - N/A   Partly Cloudy
4:50 PM 71.6 °F 60.8 °F 69% 29.98 in 6.2 mi WNW 11.5 mph - N/A   Partly Cloudy
5:20 PM 71.6 °F 60.8 °F 69% 29.95 in 6.2 mi WNW 9.2 mph - N/A   Partly Cloudy
5:50 PM 69.8 °F 60.8 °F 73% 29.95 in 6.2 mi NW 8.1 mph - N/A   Partly Cloudy
6:20 PM 68.0 °F 60.8 °F 78% 29.98 in 6.2 mi WNW 8.1 mph - N/A   Scattered Clouds
6:50 PM 68.0 °F 60.8 °F 78% 29.98 in 6.2 mi West 9.2 mph - N/A   Mostly Cloudy
7:20 PM 68.0 °F 60.8 °F 78% 29.98 in 6.2 mi WNW 8.1 mph - N/A   Partly Cloudy
7:50 PM 68.0 °F 62.6 °F 83% 29.98 in 6.2 mi West 9.2 mph - N/A   Partly Cloudy
8:20 PM 68.0 °F 62.6 °F 83% 29.98 in 6.2 mi West 6.9 mph - N/A   Partly Cloudy
8:50 PM 68.0 °F 62.6 °F 83% 29.98 in 6.2 mi West 3.5 mph - N/A   Partly Cloudy
9:20 PM 68.0 °F 62.6 °F 83% 29.98 in 6.2 mi West 6.9 mph - N/A   Partly Cloudy
9:50 PM 66.2 °F 60.8 °F 83% 29.98 in 6.2 mi West 5.8 mph - N/A   Partly Cloudy
10:20 PM 64.4 °F 60.8 °F 88% 29.98 in 6.2 mi West 4.6 mph - N/A   Partly Cloudy
10:50 PM 62.6 °F 59.0 °F 88% 29.98 in 6.2 mi Variable 2.3 mph - N/A   Partly Cloudy
11:00 PM 63 °F 59 °F 83% 29.99 in 19 mi WSW 2.2 mph - -   Scattered Clouds
11:20 PM 62.6 °F 59.0 °F 88% 29.98 in 6.2 mi West 3.5 mph - N/A   Partly Cloudy
11:50 PM 62.6 °F 59.0 °F 88% 29.98 in 6.2 mi WSW 2.3 mph - N/A   Partly Cloudy